CST,Max TemperatureF,Mean TemperatureF,Min TemperatureF,Max Dew PointF,MeanDew PointF,Min DewpointF,Max Humidity, Mean Humidity, Min Humidity, Max Sea Level PressureIn, Mean Sea Level PressureIn, Min Sea Level PressureIn, Max VisibilityMiles, Mean VisibilityMiles, Min VisibilityMiles, Max Wind SpeedMPH, Mean Wind SpeedMPH, Max Gust SpeedMPH,PrecipitationIn, CloudCover, Events, WindDirDegrees
2013-2-1,57,47,37,37,31,21,83,59,27,30.45,30.36,30.31,10,10,10,10,3,18,0.00,0,,68
2013-2-2,73,52,32,48,41,30,93,70,38,30.32,30.24,30.16,10,10,10,13,3,18,0.00,1,,242
2013-2-3,71,53,35,46,37,25,100,79,19,30.31,30.25,30.10,10,5,0,7,0,,0.00,0,Fog,295
2013-2-4,61,52,43,50,45,39,93,76,53,30.09,30.00,29.93,10,10,9,5,1,,0.00,3,Rain,117
2013-2-5,63,54,46,57,52,46,100,94,81,30.05,30.00,29.92,10,2,0,5,1,,0.10,7,Fog-Rain,102
2013-2-6,64,55,46,61,55,45,100,92,77,30.11,30.04,29.95,10,4,0,12,2,,0.27,8,Fog-Rain,103
2013-2-7,68,60,53,58,56,52,100,89,63,29.98,29.94,29.90,10,6,0,6,1,,0.00,6,Fog,326
2013-2-8,61,53,45,58,52,41,100,85,67,30.20,30.08,29.97,10,8,0,9,3,17,0.01,6,Fog-Rain,312
2013-2-9,64,54,43,57,48,40,89,76,59,30.22,30.12,29.99,10,10,7,10,5,,0.00,5,,105
2013-2-10,73,66,60,67,62,58,100,90,78,30.00,29.89,29.82,10,7,0,23,9,45,1.59,8,Fog-Rain-Thunderstorm,202
2013-2-11,62,56,51,61,52,48,100,90,74,30.13,30.08,29.97,10,8,0,9,4,17,0.83,8,Fog-Rain-Thunderstorm,65
2013-2-12,55,52,48,54,51,47,100,93,88,30.09,29.89,29.77,10,7,1,12,5,18,1.24,8,Rain-Thunderstorm,56
2013-2-13,57,47,36,48,41,34,94,77,49,30.09,30.01,29.90,10,10,2,12,4,20,0.01,5,,308
2013-2-14,62,46,30,41,34,30,100,85,31,30.16,30.11,30.07,10,5,0,6,0,,0.00,2,Fog,204
2013-2-15,64,48,33,40,36,31,93,70,32,30.26,30.17,30.11,10,8,2,12,3,22,0.00,2,,326
2013-2-16,54,43,30,30,24,17,89,51,24,30.38,30.30,30.25,10,10,10,16,5,23,0.00,0,,323
2013-2-17,66,47,28,43,34,26,89,63,36,30.31,30.23,30.14,10,10,10,13,3,22,0.00,0,,176
2013-2-18,68,58,48,61,55,39,94,84,55,30.15,29.97,29.90,10,7,2,17,6,26,0.76,7,Rain-Thunderstorm,163
2013-2-19,62,52,42,53,38,29,86,64,29,30.29,30.20,30.01,10,10,10,8,5,17,0.00,0,,18
2013-2-20,57,50,42,37,30,25,74,45,30,30.24,30.13,30.00,10,10,10,14,5,21,0.00,4,,88
2013-2-21,66,58,51,64,55,31,97,82,45,29.97,29.78,29.66,10,8,1,16,7,32,0.86,8,Rain-Thunderstorm,148
2013-2-22,64,58,51,52,48,43,94,76,48,30.01,29.96,29.90,10,9,2,8,3,,0.13,6,Rain,38
2013-2-23,64,54,42,46,42,40,93,70,46,30.03,29.97,29.92,10,10,10,9,4,,0.00,0,,53
2013-2-24,71,54,37,48,40,35,93,66,29,30.02,29.90,29.74,10,9,2,10,2,23,0.00,1,Rain,63
2013-2-25,70,61,50,63,58,33,94,85,49,29.73,29.53,29.40,10,7,1,18,6,24,0.50,7,Rain-Thunderstorm,157
2013-2-26,59,50,39,40,35,32,93,60,39,29.94,29.77,29.60,10,10,9,22,12,32,0.00,4,,278
2013-2-27,69,52,34,43,35,30,93,66,30,30.10,29.98,29.93,10,8,2,15,2,20,0.00,0,,295
2013-2-28,57,46,36,33,28,24,82,51,27,30.21,30.14,30.08,10,10,10,10,5,17,0.00,0,,302